DC1MBB-9 Weather Reports


Display with metric or nautical units.
time (UTC)temp
F
wind
direction
speed
MPH
gust
MPH
rain 1hr
in
rain 24hr
in
rain mn
in
humidity
%
barometer
mb
20260510192240 60 0 0.0 0.0 0.00 0.00 0.00 10 951.0
20260510191639 60 0 0.0 0.0 0.00 0.00 0.00 10 951.0
20260510191038 60 0 0.0 0.0 0.00 0.00 0.00 10 951.0
20260510190438 60 0 0.0 0.0 0.00 0.00 0.00 10 951.0
20260510185837 60 0 0.0 0.0 0.00 0.00 0.00 10 951.0
20260510185236 60 0 0.0 0.0 0.00 0.00 0.00 10 951.0
20260510184635 61 0 0.0 0.0 0.00 0.00 0.00 10 950.0
20260510184034 61 0 0.0 0.0 0.00 0.00 0.00 10 950.0
20260510183434 62 0 0.0 0.0 0.00 0.00 0.00 10 950.0
20260510182833 63 0 0.0 0.0 0.00 0.00 0.00 10 950.0
20260510182232 65 0 0.0 0.0 0.00 0.00 0.00 76 950.0
20260510181631 68 0 0.0 0.0 0.00 0.00 0.00 58 950.0
20260510181031 72 0 0.0 0.0 0.00 0.00 0.00 57 949.0
20260510180430 72 0 0.0 0.0 0.00 0.00 0.00 42 949.0
20260510175829 75 0 0.0 0.0 0.00 0.00 0.00 36 949.0
20260510175228 75 0 0.0 0.0 0.00 0.00 0.00 35 949.0
20260510174627 76 0 0.0 0.0 0.00 0.00 0.00 33 949.0
20260510174027 76 0 0.0 0.0 0.00 0.00 0.00 33 949.0
20260510173426 76 0 0.0 0.0 0.00 0.00 0.00 33 949.0
20260510172825 76 0 0.0 0.0 0.00 0.00 0.00 32 948.0
20260510172224 77 0 0.0 0.0 0.00 0.00 0.00 31 948.0
20260510171623 77 0 0.0 0.0 0.00 0.00 0.00 31 948.0
20260510171023 77 0 0.0 0.0 0.00 0.00 0.00 30 948.0
20260510170422 77 0 0.0 0.0 0.00 0.00 0.00 30 949.0
20260510165821 77 0 0.0 0.0 0.00 0.00 0.00 30 949.0
20260510165220 78 0 0.0 0.0 0.00 0.00 0.00 29 949.0
20260510164620 77 0 0.0 0.0 0.00 0.00 0.00 29 949.0
20260510164019 78 0 0.0 0.0 0.00 0.00 0.00 29 949.0
20260510163418 78 0 0.0 0.0 0.00 0.00 0.00 30 949.0
20260510162817 78 0 0.0 0.0 0.00 0.00 0.00 30 949.0
20260510162216 78 0 0.0 0.0 0.00 0.00 0.00 29 949.0
20260510161616 78 0 0.0 0.0 0.00 0.00 0.00 30 949.0
20260510161015 78 0 0.0 0.0 0.00 0.00 0.00 29 949.0
20260510160414 78 0 0.0 0.0 0.00 0.00 0.00 30 949.0
20260510155813 78 0 0.0 0.0 0.00 0.00 0.00 30 949.0
20260510155212 78 0 0.0 0.0 0.00 0.00 0.00 30 949.0
20260510154612 78 0 0.0 0.0 0.00 0.00 0.00 30 950.0
20260510154011 78 0 0.0 0.0 0.00 0.00 0.00 30 950.0
20260510153410 79 0 0.0 0.0 0.00 0.00 0.00 29 950.0
20260510152809 79 0 0.0 0.0 0.00 0.00 0.00 29 950.0
20260510152208 79 0 0.0 0.0 0.00 0.00 0.00 28 950.0
20260510151608 79 0 0.0 0.0 0.00 0.00 0.00 27 950.0
20260510151007 79 0 0.0 0.0 0.00 0.00 0.00 28 950.0
20260510150406 79 0 0.0 0.0 0.00 0.00 0.00 27 950.0
20260510145805 79 0 0.0 0.0 0.00 0.00 0.00 27 950.0
20260510145204 79 0 0.0 0.0 0.00 0.00 0.00 28 950.0
20260510144604 79 0 0.0 0.0 0.00 0.00 0.00 28 950.0
20260510144003 79 0 0.0 0.0 0.00 0.00 0.00 29 950.0
20260510143402 79 0 0.0 0.0 0.00 0.00 0.00 29 950.0
20260510142801 79 0 0.0 0.0 0.00 0.00 0.00 28 950.0
20260510142200 79 0 0.0 0.0 0.00 0.00 0.00 29 950.0
20260510141600 79 0 0.0 0.0 0.00 0.00 0.00 28 950.0
20260510140959 79 0 0.0 0.0 0.00 0.00 0.00 28 950.0
20260510140358 80 0 0.0 0.0 0.00 0.00 0.00 28 951.0
20260510135757 80 0 0.0 0.0 0.00 0.00 0.00 28 951.0
20260510135156 80 0 0.0 0.0 0.00 0.00 0.00 28 951.0
20260510134556 81 0 0.0 0.0 0.00 0.00 0.00 27 951.0
20260510133955 83 0 0.0 0.0 0.00 0.00 0.00 26 951.0
20260510133354 84 0 0.0 0.0 0.00 0.00 0.00 26 951.0
20260510132753 84 0 0.0 0.0 0.00 0.00 0.00 27 951.0
20260510132152 84 0 0.0 0.0 0.00 0.00 0.00 26 951.0
20260510131552 85 0 0.0 0.0 0.00 0.00 0.00 26 951.0
20260510130951 86 0 0.0 0.0 0.00 0.00 0.00 25 951.0
20260510130350 87 0 0.0 0.0 0.00 0.00 0.00 25 951.0
20260510125749 88 0 0.0 0.0 0.00 0.00 0.00 24 951.0
20260510125148 85 0 0.0 0.0 0.00 0.00 0.00 27 951.0
20260510124548 86 0 0.0 0.0 0.00 0.00 0.00 27 951.0
20260510123947 85 0 0.0 0.0 0.00 0.00 0.00 27 951.0
20260510123346 83 0 0.0 0.0 0.00 0.00 0.00 29 951.0
20260510122745 81 0 0.0 0.0 0.00 0.00 0.00 30 952.0
20260510122144 80 0 0.0 0.0 0.00 0.00 0.00 31 952.0
20260510121544 79 0 0.0 0.0 0.00 0.00 0.00 31 952.0
20260510120943 79 0 0.0 0.0 0.00 0.00 0.00 32 952.0
20260510120342 78 0 0.0 0.0 0.00 0.00 0.00 32 952.0
20260510115741 78 0 0.0 0.0 0.00 0.00 0.00 34 952.0
20260510115141 77 0 0.0 0.0 0.00 0.00 0.00 35 952.0
20260510114540 77 0 0.0 0.0 0.00 0.00 0.00 35 952.0
20260510113939 77 0 0.0 0.0 0.00 0.00 0.00 35 952.0
20260510113338 76 0 0.0 0.0 0.00 0.00 0.00 36 952.0
20260510112737 76 0 0.0 0.0 0.00 0.00 0.00 36 952.0
20260510112137 76 0 0.0 0.0 0.00 0.00 0.00 37 952.0
20260510111536 76 0 0.0 0.0 0.00 0.00 0.00 38 952.0
20260510110935 75 0 0.0 0.0 0.00 0.00 0.00 38 953.0
20260510110334 75 0 0.0 0.0 0.00 0.00 0.00 38 953.0
20260510105733 74 0 0.0 0.0 0.00 0.00 0.00 39 953.0
20260510105133 73 0 0.0 0.0 0.00 0.00 0.00 40 953.0
20260510104532 73 0 0.0 0.0 0.00 0.00 0.00 40 953.0
20260510103931 73 0 0.0 0.0 0.00 0.00 0.00 40 953.0
20260510103330 73 0 0.0 0.0 0.00 0.00 0.00 40 953.0
20260510102729 73 0 0.0 0.0 0.00 0.00 0.00 40 953.0
20260510102129 73 0 0.0 0.0 0.00 0.00 0.00 41 953.0
20260510101528 73 0 0.0 0.0 0.00 0.00 0.00 42 953.0
20260510100927 73 0 0.0 0.0 0.00 0.00 0.00 43 953.0
20260510100327 72 0 0.0 0.0 0.00 0.00 0.00 44 953.0
20260510095726 72 0 0.0 0.0 0.00 0.00 0.00 43 953.0
20260510095125 72 0 0.0 0.0 0.00 0.00 0.00 44 953.0
20260510094524 71 0 0.0 0.0 0.00 0.00 0.00 45 953.0
20260510093923 71 0 0.0 0.0 0.00 0.00 0.00 46 953.0
20260510093322 71 0 0.0 0.0 0.00 0.00 0.00 45 953.0
20260510092722 70 0 0.0 0.0 0.00 0.00 0.00 47 953.0
20260510092121 70 0 0.0 0.0 0.00 0.00 0.00 48 953.0
20260510091520 70 0 0.0 0.0 0.00 0.00 0.00 48 954.0
20260510090919 70 0 0.0 0.0 0.00 0.00 0.00 48 954.0
20260510090318 69 0 0.0 0.0 0.00 0.00 0.00 49 954.0
20260510085718 69 0 0.0 0.0 0.00 0.00 0.00 49 954.0
20260510085117 68 0 0.0 0.0 0.00 0.00 0.00 50 954.0
20260510084516 68 0 0.0 0.0 0.00 0.00 0.00 51 954.0
20260510083915 67 0 0.0 0.0 0.00 0.00 0.00 52 954.0
20260510083315 67 0 0.0 0.0 0.00 0.00 0.00 51 954.0
20260510082714 67 0 0.0 0.0 0.00 0.00 0.00 54 954.0
20260510082113 67 0 0.0 0.0 0.00 0.00 0.00 50 954.0
20260510081512 66 0 0.0 0.0 0.00 0.00 0.00 53 954.0
20260510080911 66 0 0.0 0.0 0.00 0.00 0.00 54 954.0
20260510080311 65 0 0.0 0.0 0.00 0.00 0.00 56 954.0
20260510075710 65 0 0.0 0.0 0.00 0.00 0.00 57 954.0
20260510074508 64 0 0.0 0.0 0.00 0.00 0.00 59 954.0
20260510073908 64 0 0.0 0.0 0.00 0.00 0.00 59 954.0
20260510073307 63 0 0.0 0.0 0.00 0.00 0.00 60 954.0
20260510072706 63 0 0.0 0.0 0.00 0.00 0.00 61 954.0
20260510072105 62 0 0.0 0.0 0.00 0.00 0.00 61 954.0
20260510071505 62 0 0.0 0.0 0.00 0.00 0.00 61 954.0
20260510070904 62 0 0.0 0.0 0.00 0.00 0.00 61 954.0
20260510070303 61 0 0.0 0.0 0.00 0.00 0.00 62 954.0
20260510065702 61 0 0.0 0.0 0.00 0.00 0.00 63 955.0
20260510065101 61 0 0.0 0.0 0.00 0.00 0.00 65 955.0
20260510064501 60 0 0.0 0.0 0.00 0.00 0.00 66 955.0
20260510063900 60 0 0.0 0.0 0.00 0.00 0.00 67 955.0
20260510063259 60 0 0.0 0.0 0.00 0.00 0.00 68 955.0
20260510062658 59 0 0.0 0.0 0.00 0.00 0.00 69 955.0
20260510062058 59 0 0.0 0.0 0.00 0.00 0.00 69 955.0
20260510061457 58 0 0.0 0.0 0.00 0.00 0.00 70 955.0
20260510060856 58 0 0.0 0.0 0.00 0.00 0.00 72 955.0
20260510060255 58 0 0.0 0.0 0.00 0.00 0.00 71 955.0
20260510055654 58 0 0.0 0.0 0.00 0.00 0.00 71 955.0
20260510055054 57 0 0.0 0.0 0.00 0.00 0.00 73 955.0
20260510054453 57 0 0.0 0.0 0.00 0.00 0.00 74 955.0
20260510053852 57 0 0.0 0.0 0.00 0.00 0.00 75 955.0
20260510053251 56 0 0.0 0.0 0.00 0.00 0.00 77 955.0
20260510052651 56 0 0.0 0.0 0.00 0.00 0.00 78 955.0
20260510052050 55 0 0.0 0.0 0.00 0.00 0.00 79 955.0
20260510051449 55 0 0.0 0.0 0.00 0.00 0.00 79 955.0
20260510050848 55 0 0.0 0.0 0.00 0.00 0.00 78 955.0
20260510050248 54 0 0.0 0.0 0.00 0.00 0.00 79 955.0
20260510045647 54 0 0.0 0.0 0.00 0.00 0.00 78 955.0
20260510045046 53 0 0.0 0.0 0.00 0.00 0.00 79 955.0
20260510044445 53 0 0.0 0.0 0.00 0.00 0.00 78 956.0
20260510043845 53 0 0.0 0.0 0.00 0.00 0.00 77 955.0
20260510043244 53 0 0.0 0.0 0.00 0.00 0.00 77 955.0
20260510042643 53 0 0.0 0.0 0.00 0.00 0.00 76 955.0
20260510042042 53 0 0.0 0.0 0.00 0.00 0.00 76 955.0
20260510041442 53 0 0.0 0.0 0.00 0.00 0.00 76 955.0
20260510040841 53 0 0.0 0.0 0.00 0.00 0.00 74 956.0
20260510040240 53 0 0.0 0.0 0.00 0.00 0.00 74 956.0
20260510035639 53 0 0.0 0.0 0.00 0.00 0.00 75 956.0
20260510035039 53 0 0.0 0.0 0.00 0.00 0.00 75 955.0
20260510034438 53 0 0.0 0.0 0.00 0.00 0.00 74 955.0
20260510032635 54 0 0.0 0.0 0.00 0.00 0.00 73 956.0
20260510032035 54 0 0.0 0.0 0.00 0.00 0.00 73 956.0
20260510031434 54 0 0.0 0.0 0.00 0.00 0.00 73 956.0
20260510030833 54 0 0.0 0.0 0.00 0.00 0.00 73 956.0
20260510030232 54 0 0.0 0.0 0.00 0.00 0.00 73 956.0
20260510025632 54 0 0.0 0.0 0.00 0.00 0.00 73 956.0
20260510025031 54 0 0.0 0.0 0.00 0.00 0.00 71 956.0
20260510024430 54 0 0.0 0.0 0.00 0.00 0.00 71 956.0
20260510023829 55 0 0.0 0.0 0.00 0.00 0.00 70 956.0
20260510023229 55 0 0.0 0.0 0.00 0.00 0.00 70 956.0
20260510022628 55 0 0.0 0.0 0.00 0.00 0.00 70 956.0
20260510022027 55 0 0.0 0.0 0.00 0.00 0.00 70 956.0
20260510021426 56 0 0.0 0.0 0.00 0.00 0.00 68 956.0
20260510020826 56 0 0.0 0.0 0.00 0.00 0.00 69 956.0
20260510020225 56 0 0.0 0.0 0.00 0.00 0.00 69 956.0
20260510015624 56 0 0.0 0.0 0.00 0.00 0.00 68 956.0
20260510015023 56 0 0.0 0.0 0.00 0.00 0.00 69 956.0
20260510014423 56 0 0.0 0.0 0.00 0.00 0.00 68 956.0
20260510013822 56 0 0.0 0.0 0.00 0.00 0.00 68 956.0
20260510013221 56 0 0.0 0.0 0.00 0.00 0.00 67 956.0
20260510012620 56 0 0.0 0.0 0.00 0.00 0.00 65 956.0
20260510012019 56 0 0.0 0.0 0.00 0.00 0.00 66 956.0
20260510011419 57 0 0.0 0.0 0.00 0.00 0.00 64 956.0
20260510010818 57 0 0.0 0.0 0.00 0.00 0.00 63 956.0
20260510010217 57 0 0.0 0.0 0.00 0.00 0.00 63 956.0
20260510005616 57 0 0.0 0.0 0.00 0.00 0.00 62 956.0
20260510005016 57 0 0.0 0.0 0.00 0.00 0.00 63 956.0
20260510004415 57 0 0.0 0.0 0.00 0.00 0.00 63 956.0
20260510003814 58 0 0.0 0.0 0.00 0.00 0.00 60 956.0
20260510003213 58 0 0.0 0.0 0.00 0.00 0.00 61 956.0
20260510002613 58 0 0.0 0.0 0.00 0.00 0.00 59 956.0
20260510002012 58 0 0.0 0.0 0.00 0.00 0.00 59 956.0
20260510001411 58 0 0.0 0.0 0.00 0.00 0.00 58 956.0
20260510000810 59 0 0.0 0.0 0.00 0.00 0.00 60 956.0
20260510000211 59 0 0.0 0.0 0.00 0.00 0.00 59 956.0
20260509235609 59 0 0.0 0.0 0.00 0.00 0.00 58 956.0
20260509235010 59 0 0.0 0.0 0.00 0.00 0.00 58 956.0
20260509234407 59 0 0.0 0.0 0.00 0.00 0.00 58 957.0
20260509233806 59 0 0.0 0.0 0.00 0.00 0.00 57 957.0
20260509233206 59 0 0.0 0.0 0.00 0.00 0.00 57 957.0
20260509232605 60 0 0.0 0.0 0.00 0.00 0.00 57 957.0
20260509232004 60 0 0.0 0.0 0.00 0.00 0.00 56 957.0
20260509231403 60 0 0.0 0.0 0.00 0.00 0.00 54 957.0
20260509230803 60 0 0.0 0.0 0.00 0.00 0.00 54 957.0
20260509230202 60 0 0.0 0.0 0.00 0.00 0.00 55 957.0
20260509225601 61 0 0.0 0.0 0.00 0.00 0.00 53 957.0
20260509225000 60 0 0.0 0.0 0.00 0.00 0.00 53 957.0
20260509224359 60 0 0.0 0.0 0.00 0.00 0.00 54 957.0
20260509223759 61 0 0.0 0.0 0.00 0.00 0.00 51 957.0
20260509223158 61 0 0.0 0.0 0.00 0.00 0.00 52 957.0
20260509222557 61 0 0.0 0.0 0.00 0.00 0.00 53 957.0
20260509221956 61 0 0.0 0.0 0.00 0.00 0.00 53 957.0
20260509221356 61 0 0.0 0.0 0.00 0.00 0.00 54 957.0
20260509220755 61 0 0.0 0.0 0.00 0.00 0.00 54 957.0
20260509220154 61 0 0.0 0.0 0.00 0.00 0.00 53 957.0
20260509215553 62 0 0.0 0.0 0.00 0.00 0.00 53 957.0
20260509214953 62 0 0.0 0.0 0.00 0.00 0.00 52 957.0
20260509214352 62 0 0.0 0.0 0.00 0.00 0.00 53 957.0
20260509213751 62 0 0.0 0.0 0.00 0.00 0.00 51 957.0
20260509213150 63 0 0.0 0.0 0.00 0.00 0.00 49 957.0
20260509212549 63 0 0.0 0.0 0.00 0.00 0.00 49 957.0
20260509211949 63 0 0.0 0.0 0.00 0.00 0.00 49 957.0
20260509211348 63 0 0.0 0.0 0.00 0.00 0.00 48 957.0
20260509210747 63 0 0.0 0.0 0.00 0.00 0.00 48 957.0
20260509210146 63 0 0.0 0.0 0.00 0.00 0.00 49 957.0
20260509205546 64 0 0.0 0.0 0.00 0.00 0.00 48 957.0
20260509204945 64 0 0.0 0.0 0.00 0.00 0.00 46 957.0
20260509204344 65 0 0.0 0.0 0.00 0.00 0.00 46 957.0
20260509203743 65 0 0.0 0.0 0.00 0.00 0.00 46 957.0
20260509203142 65 0 0.0 0.0 0.00 0.00 0.00 45 957.0
20260509202542 65 0 0.0 0.0 0.00 0.00 0.00 43 957.0
20260509201941 66 0 0.0 0.0 0.00 0.00 0.00 44 957.0
20260509201340 66 0 0.0 0.0 0.00 0.00 0.00 45 957.0
20260509200739 66 0 0.0 0.0 0.00 0.00 0.00 44 957.0
20260509200139 66 0 0.0 0.0 0.00 0.00 0.00 43 957.0
20260509195538 66 0 0.0 0.0 0.00 0.00 0.00 43 957.0
20260509194937 66 0 0.0 0.0 0.00 0.00 0.00 43 957.0
20260509194336 66 0 0.0 0.0 0.00 0.00 0.00 43 957.0
20260509193735 67 0 0.0 0.0 0.00 0.00 0.00 42 957.0
20260509193135 67 0 0.0 0.0 0.00 0.00 0.00 44 957.0
20260509192534 67 0 0.0 0.0 0.00 0.00 0.00 42 957.0